• In Belarus
  • List of Countries
  • For 7 days
  • Water Temperature
  • Satellite Maps
  • Weather Map
  • Weather Widgets
  • user-avatar
    Login

    Hourly Weather Warburg

    Today, 22 April, Monday

    Time Temperature Precipitation Wind Pressure Humidity
    00:00 +9°C° 0 mm 2 mps 742 mmHg 72%
    01:00 +10°C° 0 mm 1 mps 742 mmHg 70%
    02:00 +9°C° 0 mm 1 mps 742 mmHg 72%
    03:00 +9°C° 0 mm 1 mps 741 mmHg 73%
    04:00 +8°C° 0 mm 1 mps 741 mmHg 74%
    05:00 +8°C° 0 mm 2 mps 741 mmHg 73%
    06:00 +9°C° 0 mm 2 mps 741 mmHg 73%
    07:00 +10°C° 0 mm 2 mps 741 mmHg 72%
    08:00 +12°C° 0 mm 3 mps 740 mmHg 66%
    09:00 +14°C° 0 mm 4 mps 740 mmHg 60%
    10:00 +17°C° 0 mm 5 mps 740 mmHg 55%
    11:00 +17°C° 0 mm 5 mps 740 mmHg 52%
    12:00 +19°C° 0 mm 5 mps 739 mmHg 49%
    13:00 +20°C° 0 mm 6 mps 739 mmHg 47%
    14:00 +19°C° 0 mm 6 mps 738 mmHg 48%
    15:00 +19°C° 0 mm 6 mps 738 mmHg 49%
    16:00 +19°C° 0 mm 6 mps 737 mmHg 50%
    17:00 +16°C° 0 mm 6 mps 737 mmHg 54%
    18:00 +14°C° 0 mm 5 mps 737 mmHg 58%
    19:00 +12°C° 0 mm 5 mps 737 mmHg 62%
    20:00 +10°C° 0 mm 5 mps 737 mmHg 63%
    21:00 +9°C° 0 mm 5 mps 737 mmHg 65%
    22:00 +8°C° 0 mm 5 mps 737 mmHg 66%
    23:00 +8°C° 0 mm 5 mps 736 mmHg 67%

    Tomorrow, 23 April, Tuesday

    Time Temperature Precipitation Wind Pressure Humidity
    00:00 +8°C° 0 mm 5 mps 736 mmHg 68%
    01:00 +7°C° 0 mm 4 mps 736 mmHg 69%
    02:00 +7°C° 0 mm 4 mps 735 mmHg 71%
    03:00 +7°C° 0 mm 4 mps 734 mmHg 74%
    04:00 +7°C° 0 mm 4 mps 734 mmHg 76%
    05:00 +7°C° 0 mm 5 mps 734 mmHg 77%
    06:00 +8°C° 0 mm 6 mps 734 mmHg 78%
    07:00 +9°C° 0 mm 6 mps 733 mmHg 79%
    08:00 +10°C° 0 mm 7 mps 733 mmHg 75%
    09:00 +12°C° 0 mm 7 mps 733 mmHg 72%
    10:00 +14°C° 0 mm 7 mps 732 mmHg 68%
    11:00 +15°C° 0 mm 8 mps 732 mmHg 68%
    12:00 +15°C° 0 mm 8 mps 732 mmHg 68%
    13:00 +15°C° 0 mm 8 mps 732 mmHg 68%
    14:00 +15°C° 0 mm 7 mps 731 mmHg 68%
    15:00 +15°C° 0 mm 7 mps 731 mmHg 68%
    16:00 +15°C° 0 mm 7 mps 730 mmHg 68%
    17:00 +15°C° 0 mm 6 mps 730 mmHg 72%
    18:00 +14°C° 0 mm 5 mps 730 mmHg 75%
    19:00 +13°C° 0 mm 4 mps 730 mmHg 78%
    20:00 +12°C° 0 mm 4 mps 730 mmHg 80%
    21:00 +12°C° 0 mm 4 mps 730 mmHg 82%
    22:00 +11°C° 0 mm 4 mps 730 mmHg 83%
    23:00 +10°C° 0 mm 3 mps 730 mmHg 86%

    Day after tomorrow, 24 April, Wednesday

    Time Temperature Precipitation Wind Pressure Humidity
    00:00 +9°C° 0 mm 3 mps 729 mmHg 89%
    01:00 +8°C° 0 mm 2 mps 729 mmHg 92%
    02:00 +8°C° 0 mm 2 mps 730 mmHg 93%
    03:00 +8°C° 0 mm 2 mps 730 mmHg 93%
    04:00 +8°C° 0 mm 2 mps 730 mmHg 94%
    05:00 +9°C° 0 mm 3 mps 730 mmHg 92%
    06:00 +11°C° 0 mm 3 mps 731 mmHg 90%
    07:00 +12°C° 0 mm 3 mps 731 mmHg 88%
    08:00 +14°C° 0 mm 4 mps 732 mmHg 80%
    09:00 +18°C° 0 mm 4 mps 732 mmHg 72%
    10:00 +20°C° 0 mm 5 mps 733 mmHg 64%
    11:00 +21°C° 0 mm 5 mps 733 mmHg 59%
    12:00 +22°C° 0 mm 4 mps 733 mmHg 54%
    13:00 +22°C° 0 mm 4 mps 733 mmHg 49%
    14:00 +22°C° 0.1 mm 4 mps 733 mmHg 51%
    15:00 +22°C° 0.1 mm 4 mps 733 mmHg 54%
    16:00 +22°C° 0.1 mm 4 mps 733 mmHg 56%
    17:00 +21°C° 0.8 mm 3 mps 733 mmHg 66%
    18:00 +19°C° 0.8 mm 2 mps 733 mmHg 75%
    19:00 +17°C° 0.8 mm 2 mps 734 mmHg 85%
    20:00 +15°C° 2.1 mm 2 mps 734 mmHg 86%
    21:00 +12°C° 2.1 mm 3 mps 735 mmHg 87%
    22:00 +10°C° 2.1 mm 4 mps 736 mmHg 89%
    23:00 +10°C° 0.1 mm 3 mps 736 mmHg 90%

    25 April, Thursday

    Time Temperature Precipitation Wind Pressure Humidity
    00:00 +10°C° 0.1 mm 3 mps 737 mmHg 92%
    01:00 +9°C° 0.1 mm 3 mps 737 mmHg 93%
    02:00 +9°C° 0 mm 3 mps 737 mmHg 94%
    03:00 +8°C° 0 mm 2 mps 737 mmHg 95%
    04:00 +7°C° 0 mm 2 mps 737 mmHg 96%
    05:00 +8°C° 0 mm 3 mps 737 mmHg 93%
    06:00 +9°C° 0 mm 3 mps 738 mmHg 91%
    07:00 +9°C° 0 mm 3 mps 738 mmHg 88%
    08:00 +11°C° 0 mm 4 mps 738 mmHg 80%
    09:00 +13°C° 0 mm 4 mps 738 mmHg 71%
    10:00 +16°C° 0 mm 5 mps 739 mmHg 62%
    11:00 +17°C° 0 mm 5 mps 739 mmHg 58%
    12:00 +19°C° 0 mm 5 mps 739 mmHg 54%
    13:00 +21°C° 0 mm 6 mps 739 mmHg 50%
    14:00 +21°C° 0 mm 5 mps 739 mmHg 49%
    15:00 +21°C° 0 mm 4 mps 738 mmHg 48%
    16:00 +21°C° 0 mm 3 mps 738 mmHg 47%
    17:00 +20°C° 0 mm 3 mps 739 mmHg 53%
    18:00 +18°C° 0 mm 2 mps 739 mmHg 58%
    19:00 +18°C° 0 mm 1 mps 739 mmHg 63%
    20:00 +16°C° 0 mm 1 mps 739 mmHg 63%
    21:00 +15°C° 0 mm 1 mps 739 mmHg 62%
    22:00 +14°C° 0 mm 0 mps 739 mmHg 62%
    23:00 +14°C° 0.2 mm 1 mps 739 mmHg 68%

    26 April, Friday

    Time Temperature Precipitation Wind Pressure Humidity
    00:00 +14°C° 0.2 mm 1 mps 739 mmHg 74%
    01:00 +13°C° 0.2 mm 2 mps 739 mmHg 79%
    02:00 +12°C° 0.2 mm 2 mps 739 mmHg 84%
    03:00 +11°C° 0.2 mm 3 mps 739 mmHg 89%
    04:00 +10°C° 0.2 mm 4 mps 738 mmHg 93%
    05:00 +10°C° 0.2 mm 4 mps 739 mmHg 93%
    06:00 +10°C° 0.2 mm 4 mps 739 mmHg 94%
    07:00 +8°C° 0.2 mm 4 mps 739 mmHg 94%
    08:00 +10°C° 0.1 mm 4 mps 739 mmHg 91%
    09:00 +10°C° 0.1 mm 4 mps 740 mmHg 88%
    10:00 +11°C° 0.1 mm 4 mps 740 mmHg 84%
    11:00 +10°C° 0.4 mm 4 mps 741 mmHg 85%
    12:00 +10°C° 0.4 mm 3 mps 741 mmHg 86%
    13:00 +10°C° 0.4 mm 3 mps 741 mmHg 86%
    14:00 +11°C° 0.1 mm 3 mps 741 mmHg 80%
    15:00 +13°C° 0.1 mm 2 mps 741 mmHg 73%
    16:00 +14°C° 0.1 mm 2 mps 741 mmHg 66%
    17:00 +13°C° 0.1 mm 2 mps 741 mmHg 69%
    18:00 +13°C° 0.1 mm 2 mps 741 mmHg 73%
    19:00 +12°C° 0.1 mm 2 mps 742 mmHg 76%
    20:00 +10°C° 0 mm 2 mps 742 mmHg 80%
    21:00 +9°C° 0 mm 2 mps 743 mmHg 84%
    22:00 +7°C° 0 mm 2 mps 743 mmHg 88%
    23:00 +7°C° 0 mm 3 mps 743 mmHg 89%

    27 April, Saturday

    Time Temperature Precipitation Wind Pressure Humidity
    00:00 +7°C° 0 mm 3 mps 744 mmHg 90%
    01:00 +7°C° 0 mm 3 mps 744 mmHg 92%
    02:00 +5°C° 0 mm 3 mps 744 mmHg 92%
    03:00 +5°C° 0 mm 3 mps 744 mmHg 92%
    04:00 +5°C° 0 mm 3 mps 745 mmHg 92%
    05:00 +5°C° 0 mm 4 mps 745 mmHg 88%
    06:00 +6°C° 0 mm 4 mps 745 mmHg 84%
    07:00 +7°C° 0 mm 5 mps 745 mmHg 79%
    08:00 +8°C° 0 mm 5 mps 745 mmHg 73%
    09:00 +10°C° 0 mm 6 mps 745 mmHg 67%
    10:00 +12°C° 0 mm 7 mps 745 mmHg 60%
    11:00 +11°C° 0.3 mm 7 mps 744 mmHg 68%
    12:00 +10°C° 0.3 mm 7 mps 744 mmHg 76%
    13:00 +9°C° 0.3 mm 7 mps 744 mmHg 83%
    14:00 +9°C° 0.2 mm 6 mps 744 mmHg 84%
    15:00 +9°C° 0.2 mm 5 mps 744 mmHg 85%
    16:00 +9°C° 0.2 mm 5 mps 744 mmHg 86%
    17:00 +10°C° 0.3 mm 4 mps 744 mmHg 88%
    18:00 +10°C° 0.3 mm 3 mps 744 mmHg 90%
    19:00 +9°C° 0.3 mm 3 mps 744 mmHg 92%
    20:00 +9°C° 0.2 mm 3 mps 744 mmHg 93%
    21:00 +9°C° 0.2 mm 3 mps 743 mmHg 93%
    22:00 +9°C° 0.2 mm 3 mps 743 mmHg 94%
    23:00 +9°C° 2.2 mm 3 mps 742 mmHg 95%
    Show more